Location: Holiday Acres Laynes 2 Mobile Home Park
(26.7249°N, 81.8671°W)
Time: 07:05:15
(UTC+00:00)

Cosmos 1689 Rocket - Pass Details

Date: 25 November 2020
Orbit: 356 x 370 km, 97.5° (Epoch: 21 January)

Event Time Altitude Azimuth Distance (km) Brightness Sun altitude
Exits shadow 23:35:55 - 9° (N) 1,505 4.8 -13.8°
Reaches altitude 10° 23:36:13 10° 9° (N) 1,375 4.6 -13.8°
Maximum altitude 23:39:09 82° 282° (WNW) 381 2.0 -14.5°
Drops below altitude 10° 23:42:05 10° 194° (SSW) 1,376 5.3 -15.1°
Sets 23:44:01 0° 194° (SSW) 2,225 6.3 -15.5°
